Location: Ostrava
(49.8330°N, 18.2830°E)
Time: 02:53:26
(UTC+01:00)

NOAA 19 - Visible Passes

Search period start: 19 February 2018 00:00
Search period end: 01 March 2018 00:00
Orbit: 842 x 861 km, 99.1° (Epoch: 17 February)

Date Brightness Start Highest point End Pass type
(mag) Time Alt. Az. Time Alt. Az. Time Alt. Az.
19 Feb 7.7 02:29:04 10° NE 02:32:05 15° E 02:33:33 13° ESE visible
19 Feb 5.2 04:07:59 10° NNE 04:13:37 84° ESE 04:15:36 42° S visible
19 Feb 6.5 05:49:42 10° N 05:53:38 20° NW 05:57:35 10° W visible
20 Feb 7.9 02:18:30 10° ENE 02:20:20 12° E 02:22:03 10° ESE visible
20 Feb 5.4 03:56:28 10° NNE 04:02:02 70° ESE 04:04:05 40° S visible
20 Feb 6.3 05:37:54 10° N 05:42:14 24° WNW 05:46:07 12° WSW visible
21 Feb 5.7 03:44:57 10° NNE 03:50:27 57° ESE 03:52:35 35° SSE visible
21 Feb 6.1 05:26:09 10° N 05:30:49 28° WNW 05:34:37 14° WSW visible
22 Feb 6.1 03:33:29 10° NNE 03:38:51 46° E 03:41:04 31° SSE visible
22 Feb 5.9 05:14:26 10° N 05:19:23 34° WNW 05:23:06 16° WSW visible
23 Feb 6.5 03:22:02 10° NNE 03:27:13 38° E 03:29:34 26° SE visible
23 Feb 5.7 05:02:45 10° N 05:07:55 40° WNW 05:11:36 18° SW visible
24 Feb 6.8 03:10:39 10° NNE 03:15:34 31° E 03:18:04 22° SE visible
24 Feb 5.4 04:51:06 10° N 04:56:27 49° WNW 05:00:06 20° SW visible
25 Feb 7.1 02:59:20 10° NE 03:03:54 25° E 03:06:34 18° SE visible
25 Feb 5.2 04:39:28 10° N 04:44:57 59° WNW 04:48:36 21° SW visible
26 Feb 7.4 02:48:06 10° NE 02:52:12 21° E 02:55:04 14° SE visible
26 Feb 5.1 04:27:51 10° NNE 04:33:25 72° WNW 04:37:06 22° SSW visible
27 Feb 7.7 02:36:59 10° NE 02:40:28 17° E 02:43:34 11° ESE visible
27 Feb 5.1 04:16:17 10° NNE 04:21:54 86° WNW 04:25:36 22° SSW visible
27 Feb 6.7 05:58:09 10° NNW 06:01:49 18° NW 06:05:28 10° W visible
28 Feb 7.9 02:26:06 10° ENE 02:28:44 13° E 02:31:22 10° ESE visible
28 Feb 5.3 04:04:44 10° NNE 04:10:20 78° ESE 04:14:06 21° S visible
28 Feb 6.5 05:46:19 10° N 05:50:26 22° NW 05:54:30 10° WSW visible
